Weather History for Mountain Home, ID

Change the Weather History Date:

Wednesday, February 6, 2013

  Actual Average Record
Temperature  
Mean Temperature 36 °F 33 °F  
Max Temperature 44 °F 42 °F 64 °F (1963)
Min Temperature 27 °F 23 °F -10 °F (1989)
Degree Days  
Heating Degree Days 29 32  
Month to date heating degree days 184 194  
Moisture  
Dew Point 29 °F    
Average Humidity 93    
Maximum Humidity 100    
Minimum Humidity 47    
Precipitation  
Precipitation T in 0.03 in 0.55 in (1916)
Month to date precipitation T 0.17  
Sea Level Pressure  
Sea Level Pressure 30.12 in    
Wind  
Wind Speed 6 mph (WNW)    
Max Wind Speed 15 mph    
Max Gust Speed -    
Visibility 3 miles    
Events Fog    
T = Trace of Precipitation, MM = Missing Value Source: NWS Daily Summary

Daily Weather History Graph

Daily Weather History Graph

Search for Another Location

Airport:

Trip Planner

Search our weather history database for the weather conditions in past years. The results will help you decide how hot, cold, wet, or windy it might be!

Date:

Astronomy

Feb. 06, 2013 Rise Set
Actual Time 7:52 AM MST 6:03 PM MST
Civil Twilight 7:22 AM MST 6:33 PM MST
Nautical Twilight 6:49 AM MST 7:06 PM MST
Astronomical Twilight 6:16 AM MST 7:39 PM MST
Moon 4:43 AM MST (2/6) 2:23 PM MST (2/6)
Length of Visible Light 11h 10m
Length of Day
10h 10m
Waning Crescent, 16% of the Moon is Illuminated
Feb 6
Waning Crescent
Feb 10
New
Feb 17
First Quarter
Feb 25
Full
Mar 4
Last Quarter

Hourly Weather History & Observations

Time (MST) Temp. Windchill Dew Point Humidity Pressure Visibility Wind Dir Wind Speed Gust Speed Precip Events Conditions
12:03 AM 32.0 °F 27.5 °F 32.0 °F 100% 29.99 in 1.0 mi SW 4.6 mph - N/A   Mist
12:08 AM 32.0 °F 26.4 °F 32.0 °F 100% 30.00 in 1.0 mi West 5.8 mph - N/A   Mist
12:18 AM 32.0 °F - 32.0 °F 100% 30.00 in 0.8 mi NW 2.3 mph - N/A   Mist
12:23 AM 32.0 °F 28.7 °F 32.0 °F 100% 30.00 in 0.8 mi West 3.5 mph - N/A   Mist
12:28 AM 32.0 °F 27.5 °F 32.0 °F 100% 30.00 in 0.5 mi WSW 4.6 mph - N/A Fog Light Freezing Fog
12:33 AM 32.0 °F 25.6 °F 32.0 °F 100% 30.01 in 0.8 mi West 6.9 mph - N/A   Mist
12:43 AM 32.0 °F 25.6 °F 32.0 °F 100% 30.01 in 0.5 mi SW 6.9 mph - N/A Fog Light Freezing Fog
12:48 AM 32.0 °F 26.4 °F 32.0 °F 100% 30.01 in 0.5 mi WSW 5.8 mph - N/A Fog Light Freezing Fog
12:58 AM 31.1 °F 26.4 °F 30.9 °F 99% 30.06 in 0.5 mi West 4.6 mph - 0.00 in Fog Light Freezing Fog
1:58 AM 30.9 °F 23.5 °F 30.7 °F 99% 30.07 in 0.8 mi WNW 8.1 mph - N/A   Mist
2:14 AM 32.0 °F 25.6 °F 32.0 °F 100% 30.04 in 3.0 mi WNW 6.9 mph - N/A   Overcast
2:36 AM 30.2 °F 21.3 °F 30.2 °F 100% 30.05 in 1.5 mi NW 10.4 mph - N/A   Overcast
3:04 AM 30.2 °F 21.3 °F 30.2 °F 100% 30.05 in 0.5 mi NW 10.4 mph - N/A   Mist
3:58 AM 28.9 °F 20.4 °F 28.6 °F 99% 30.10 in 0.5 mi NW 9.2 mph - N/A Fog Light Freezing Fog
4:17 AM 28.4 °F 19.7 °F 28.4 °F 100% 30.04 in 0.5 mi NW 9.2 mph - N/A Fog Light Freezing Fog
4:58 AM 28.4 °F 22.2 °F 28.4 °F 100% 30.12 in 0.2 mi WNW 5.8 mph - N/A Fog Light Freezing Fog
5:58 AM 28.2 °F 23.1 °F 27.9 °F 99% 30.14 in 0.5 mi WNW 4.6 mph - N/A Fog Light Freezing Fog
6:54 AM 28.4 °F 20.4 °F 26.6 °F 93% 30.09 in 0.5 mi WNW 8.1 mph - N/A Fog Light Freezing Fog
6:59 AM 27.7 °F 20.4 °F 27.5 °F 99% 30.17 in 0.5 mi WNW 6.9 mph - 0.00 in Fog Light Freezing Fog
7:00 AM 28.4 °F 22.2 °F 26.6 °F 93% 30.09 in 0.5 mi WNW 5.8 mph - N/A Fog Light Freezing Fog
7:45 AM 26.6 °F 22.6 °F 26.6 °F 100% 30.12 in 0.1 mi West 3.5 mph - N/A Fog Light Freezing Fog
7:58 AM 26.6 °F 22.6 °F 26.6 °F 100% 30.19 in 0.1 mi WSW 3.5 mph - N/A Fog Light Freezing Fog
8:52 AM 26.6 °F 21.2 °F 26.6 °F 100% 30.14 in 0.1 mi West 4.6 mph - N/A Fog Light Freezing Fog
8:58 AM 27.3 °F 22.0 °F 27.0 °F 99% 30.22 in 0.1 mi WNW 4.6 mph - 0.00 in Fog Light Freezing Fog
9:01 AM 26.6 °F 21.2 °F 26.6 °F 100% 30.14 in 0.1 mi WSW 4.6 mph - N/A Fog Light Freezing Fog
9:19 AM 27.3 °F 20.9 °F 27.0 °F 99% 30.16 in 0.1 mi WNW 5.8 mph - 0.00 in Fog Light Freezing Fog
9:28 AM 27.3 °F 22.0 °F 27.0 °F 99% 30.15 in 0.1 mi West 4.6 mph - N/A Fog Light Freezing Fog
9:59 AM 28.4 °F 22.2 °F 28.4 °F 100% 30.23 in 0.1 mi West 5.8 mph - N/A Fog Light Freezing Fog
10:55 AM 30.2 °F 26.7 °F 28.4 °F 93% 30.23 in 0.2 mi West 3.5 mph - N/A Fog Light Freezing Fog
11:20 AM 32.0 °F 27.5 °F 32.0 °F 100% 30.17 in 1.0 mi West 4.6 mph - N/A   Mist
11:27 AM 32.0 °F - 32.0 °F 100% 30.17 in 0.8 mi WNW 2.3 mph - N/A   Mist
11:41 AM 32.0 °F - 32.0 °F 100% 30.17 in 1.0 mi NNE 1.2 mph - N/A   Mostly Cloudy
11:44 AM 32.0 °F - 32.0 °F 100% 30.17 in 2.0 mi NNE 1.2 mph - N/A   Overcast
11:57 AM 32.0 °F 28.7 °F 32.0 °F 100% 30.23 in 3.0 mi NNW 3.5 mph - N/A   Mostly Cloudy
12:03 PM 32.0 °F - 32.0 °F 100% 30.16 in 6.0 mi NNE 2.3 mph - N/A   Scattered Clouds
12:22 PM 32.0 °F 27.5 °F 32.0 °F 100% 30.15 in 7.0 mi NNW 4.6 mph - N/A   Partly Cloudy
12:58 PM 35.2 °F 32.4 °F 35.1 °F 99% 30.21 in 10.0 mi North 3.5 mph - N/A   Clear
1:58 PM 39.4 °F 36.1 °F 39.2 °F 99% 30.19 in 10.0 mi NW 4.6 mph - N/A   Clear
2:58 PM 43.3 °F 40.7 °F 29.3 °F 58% 30.18 in 10.0 mi NW 4.6 mph - N/A   Clear
3:58 PM 44.1 °F 40.8 °F 28.4 °F 54% 30.18 in 10.0 mi NW 5.8 mph - N/A   Scattered Clouds
4:58 PM 44.1 °F 40.8 °F 25.2 °F 47% 30.16 in 10.0 mi North 5.8 mph - N/A   Clear
5:58 PM 43.0 °F 41.3 °F 25.9 °F 51% 30.17 in 10.0 mi NE 3.5 mph - N/A   Clear
6:58 PM 33.8 °F 28.6 °F 25.0 °F 70% 30.19 in 10.0 mi East 5.8 mph - N/A   Clear
7:58 PM 30.4 °F 23.6 °F 24.6 °F 79% 30.19 in 10.0 mi East 6.9 mph - N/A   Clear
8:58 PM 30.7 °F 24.1 °F 26.2 °F 83% 30.17 in 10.0 mi SE 6.9 mph - N/A   Clear
9:58 PM 30.4 °F 22.2 °F 25.3 °F 82% 30.19 in 10.0 mi ESE 9.2 mph - N/A   Clear
10:58 PM 30.9 °F 20.2 °F 25.2 °F 79% 30.16 in 10.0 mi ESE 15.0 mph - N/A   Clear
11:58 PM 32.9 °F 23.7 °F 26.4 °F 77% 30.15 in 10.0 mi ESE 12.7 mph - N/A   Clear